Date String (YYYY-MM-DD hh:mm:ss) UTC,Instrument flags,Ambient pressure (hPa),Sample flow (lpm),Bypass flow (lpm),Sample temperature (°C),Ambient temperature (°C),ASC tube jacket temperature (°C),LED temperature (°C),Box temperature (°C),Sample RH (%),Span deviation,Mass concentration (μg/m³),Mass concentration (μg/m³),Mass concentration (μg/m³)
DateTimeUTC,F1_M11,P_M11,Q1_M11,Q2_M11,T1_M11,T2_M11,T3_M11,T4_M11,T5_M11,U1_M11,ZSPAN_M11,X0_M11,X2_M11,X1_M11
2021-10-22 14:00:00,,0827.9,5.01,0.00,26.1,25.3,00.0,35.1,28.0,09.9,0000.0,0008.11,0003.30,0002.34
2021-10-22 14:01:00,,0828.0,5.00,0.00,26.1,25.3,00.0,35.1,28.0,10.5,0000.0,0008.79,0003.45,0002.52
2021-10-22 14:05:21,,0988.7,4.96,0.00,03.4,03.3,00.0,03.8,26.2,31.7,0000.0,0000.00,0000.00,0000.00
2021-10-22 14:06:00,,0827.9,5.01,0.00,26.2,25.5,00.0,30.8,28.0,10.0,0000.0,0008.68,0003.04,0001.72
2021-10-22 14:07:00,,0827.9,5.00,0.00,26.2,25.5,00.0,32.4,28.0,10.0,0000.0,0010.22,0003.50,0001.62
2021-10-22 14:08:00,,0827.9,4.99,0.00,26.2,25.5,00.0,33.3,27.9,10.3,0000.0,0009.92,0003.63,0002.09
2021-10-22 14:09:00,,0828.0,5.00,0.00,26.2,25.5,00.0,33.9,28.0,10.8,0000.0,0012.51,0004.05,0002.90
2021-10-22 14:10:00,,0827.9,5.00,0.00,26.1,25.5,00.0,34.3,27.9,10.7,0000.0,0012.53,0004.29,0003.25
2021-10-22 14:11:00,,0827.9,5.00,0.00,26.1,25.5,00.0,34.5,27.9,10.6,0000.0,0012.24,0004.40,0003.37
2021-10-22 14:12:00,,0827.9,5.01,0.00,26.1,25.5,00.0,34.7,27.9,10.1,0000.0,0011.72,0004.30,0003.35
2021-10-22 14:13:00,,0827.8,4.98,0.00,26.2,25.6,00.0,34.8,28.0,09.9,0000.0,0011.83,0004.18,0003.27
2021-10-22 14:14:00,,0827.9,5.00,0.00,26.2,25.6,00.0,34.9,28.0,10.0,0000.0,0011.51,0004.09,0003.20
2021-10-22 14:15:00,,0828.0,5.00,0.00,26.2,25.6,00.0,34.9,28.0,10.3,0000.0,0011.04,0004.03,0003.17
2021-10-22 14:16:00,,0828.0,5.00,0.00,26.2,25.6,00.0,35.0,28.0,10.6,0000.0,0011.09,0004.13,0003.22
2021-10-22 14:17:00,,0827.9,5.01,0.00,26.2,25.6,00.0,35.0,28.0,10.5,0000.0,0011.39,0004.23,0003.31
2021-10-22 14:18:00,,0828.0,4.98,0.00,26.2,25.5,00.0,35.0,28.0,10.1,0000.0,0011.22,0004.28,0003.42
2021-10-22 14:19:00,,0828.0,5.00,0.00,26.2,25.6,00.0,35.1,28.0,09.6,-002.1,0011.19,0004.24,0003.40
2021-10-22 14:20:00,,0828.0,5.00,0.00,26.2,25.6,00.0,35.1,28.0,09.5,0000.0,0010.01,0004.07,0003.26
2021-10-22 14:21:00,,0828.0,5.01,0.00,26.3,25.6,00.0,35.1,28.1,09.8,0000.0,0009.45,0003.90,0003.12
2021-10-22 14:22:00,,0828.0,5.00,0.00,26.3,25.6,00.0,35.1,28.1,10.0,0000.0,0009.12,0003.76,0002.94
2021-10-22 14:23:00,,0828.1,5.01,0.00,26.3,25.6,00.0,35.2,28.2,11.1,0000.0,0009.21,0003.82,0002.95
2021-10-22 14:24:00,,0828.1,4.98,0.00,26.3,25.7,00.0,35.2,28.2,11.0,0000.0,0009.07,0003.94,0003.09
2021-10-22 14:25:00,,0828.1,5.00,0.00,26.3,25.7,00.0,35.2,28.2,11.0,0000.0,0009.17,0004.06,0003.20
2021-10-22 14:26:00,,0828.1,5.01,0.00,26.4,25.7,00.0,35.2,28.2,10.9,0000.0,0009.86,0004.15,0003.27
2021-10-22 14:27:00,,0828.1,5.00,0.00,26.4,25.7,00.0,35.3,28.2,10.7,0000.0,0010.98,0004.10,0003.25
2021-10-22 14:28:00,,0828.1,4.99,0.00,26.4,25.7,00.0,35.3,28.3,10.4,0000.0,0010.88,0004.05,0003.21
2021-10-22 14:29:00,,0828.1,5.01,0.00,26.4,25.7,00.0,35.3,28.3,11.0,0000.0,0010.94,0004.04,0003.20
2021-10-22 14:30:00,,0828.1,4.98,0.00,26.4,25.8,00.0,35.3,28.3,11.3,0000.0,0011.30,0004.16,0003.29
2021-10-22 14:31:00,,0828.1,5.00,0.00,26.5,25.8,00.0,35.4,28.4,11.1,0000.0,0011.89,0004.29,0003.39
2021-10-22 14:32:00,,0828.1,4.99,0.00,26.5,25.8,00.0,35.4,28.4,11.3,0000.0,0012.70,0004.41,0003.47
2021-10-22 14:33:00,,0828.2,5.01,0.00,26.5,25.8,00.0,35.4,28.4,11.3,0000.0,0013.13,0004.47,0003.53
2021-10-22 14:34:00,,0828.2,5.00,0.00,26.5,25.8,00.0,35.4,28.4,11.2,0000.0,0013.13,0004.44,0003.54
2021-10-22 14:35:00,,0828.1,4.99,0.00,26.5,25.8,00.0,35.4,28.4,11.0,0000.0,0013.13,0004.44,0003.52
2021-10-22 14:36:00,,0828.1,5.00,0.00,26.5,25.8,00.0,35.5,28.4,11.0,0000.0,0012.97,0004.42,0003.51
2021-10-22 14:37:00,,0828.2,5.01,0.00,26.5,25.8,00.0,35.5,28.4,10.8,0000.0,0012.39,0004.39,0003.49
2021-10-22 14:38:00,,0828.2,5.00,0.00,26.5,25.8,00.0,35.5,28.4,10.5,0000.5,0011.57,0004.39,0003.50
2021-10-22 14:39:00,,0828.2,5.00,0.00,26.6,25.8,00.0,35.5,28.4,10.4,0000.0,0012.05,0004.41,0003.55
2021-10-22 14:40:00,,0828.2,4.99,0.00,26.6,25.8,00.0,35.5,28.4,10.2,-000.4,0012.23,0004.46,0003.57
2021-10-22 14:41:00,,0828.2,5.00,0.00,26.6,25.8,00.0,35.5,28.4,10.1,0000.0,0012.35,0004.47,0003.57
2021-10-22 14:42:00,,0828.2,5.00,0.00,26.6,25.8,00.0,35.5,28.4,10.1,-000.9,0012.22,0004.45,0003.57
2021-10-22 14:43:00,,0828.2,5.00,0.00,26.6,25.9,00.0,35.5,28.4,10.1,-001.8,0011.88,0004.47,0003.58
2021-10-22 14:44:00,,0828.2,4.99,0.00,26.6,25.9,00.0,35.6,28.4,10.1,-001.8,0011.57,0004.48,0003.59
2021-10-22 14:45:00,,0828.2,5.00,0.00,26.6,25.9,00.0,35.6,28.5,10.0,-001.3,0011.40,0004.51,0003.61
2021-10-22 14:46:00,,0828.2,4.99,0.00,26.7,25.9,00.0,35.6,28.5,10.0,-002.4,0011.35,0004.50,0003.61
2021-10-22 14:47:00,,0828.2,5.00,0.00,26.7,26.0,00.0,35.6,28.6,10.2,-002.6,0011.69,0004.54,0003.62
2021-10-22 14:48:00,,0828.2,5.00,0.00,26.7,26.0,00.0,35.6,28.6,10.1,-000.2,0012.27,0004.58,0003.63
2021-10-22 14:49:00,,0828.2,5.00,0.00,26.7,26.0,00.0,35.6,28.6,10.0,0000.0,0011.82,0004.58,0003.62
2021-10-22 14:50:00,,0828.2,5.00,0.00,26.7,26.0,00.0,35.7,28.6,09.9,0000.0,0011.44,0004.56,0003.58
2021-10-22 14:51:00,,0828.2,5.00,0.00,26.8,26.0,00.0,35.7,28.7,10.0,0000.0,0011.24,0004.48,0003.52
2021-10-22 14:52:00,,0828.2,5.00,0.00,26.8,26.1,00.0,35.7,28.7,10.0,0000.0,0010.93,0004.41,0003.47
2021-10-22 14:53:00,,0828.2,5.00,0.00,26.8,26.1,00.0,35.7,28.7,09.9,0000.0,0010.50,0004.32,0003.42
2021-10-22 14:54:00,,0828.2,4.99,0.00,26.8,26.1,00.0,35.7,28.7,09.8,0000.0,0010.26,0004.25,0003.36
2021-10-22 14:55:00,,0828.2,5.00,0.00,26.8,26.1,00.0,35.7,28.7,09.8,0000.0,0010.56,0004.19,0003.29
2021-10-22 14:56:00,,0828.3,5.00,0.00,26.9,26.1,00.0,35.8,28.8,09.7,0000.0,0010.51,0004.11,0003.23
2021-10-22 14:57:00,,0828.2,5.00,0.00,26.9,26.2,00.0,35.8,28.8,09.7,0000.0,0011.39,0004.00,0003.15
2021-10-22 14:58:00,,0828.2,5.01,0.00,26.9,26.2,00.0,35.8,28.8,09.4,0000.0,0011.29,0003.88,0003.04
2021-10-22 14:59:00,,0828.2,5.00,0.00,26.9,26.2,00.0,35.8,28.8,09.3,0000.0,0010.63,0003.72,0002.89
